Temperature
20 17 16 16 17 17 18 18 18 20 21 21 20 20 20 19 18 17 17 17 17 17 18 19 20 20 19 19 19 19 19 19 19 18 18 18 18 18 17 17 17 17 17 17
17 16 18 19 19 19 19 19 19 20 21 21 19 18 17 17 16 16 16 16 16 16 17 17 18 18 19 18 18 18 18 18 18 18 18 18 18 17 17 17 17 17 17 17
17 18 20 20 20 20 20 19 19 20 20 21 20 17 16 16 16 15 14 14 15 15 15 16 17 17 17 18 18 18 18 18 18 18 18 17 17 17 16 16 16 16 16 16
18 19 20 20 20 20 19 20 21 21 19 18 19 17 16 16 15 15 14 13 13 13 14 15 15 16 16 16 17 17 16 17 17 17 17 17 17 16 16 15 15 15 15 15
18 19 19 19 20 21 20 21 21 21 20 18 18 17 15 15 15 14 13 13 13 13 13 14 14 14 15 15 16 16 16 16 16 16 16 16 16 15 15 14 14 15 14 14
18 20 20 20 21 21 21 20 19 18 17 17 18 17 16 15 15 14 13 12 12 12 12 13 13 14 14 14 15 15 15 15 15 15 15 15 15 15 14 14 14 14 13 13
18 18 19 20 20 20 20 17 16 17 16 17 18 17 15 14 14 14 13 12 11 11 12 12 12 12 13 13 14 14 14 14 14 14 14 14 14 14 13 13 13 12 12 12
16 16 18 19 19 18 18 17 16 17 16 16 17 15 14 13 13 12 11 11 11 11 11 11 11 11 11 12 12 13 13 13 13 13 13 13 13 12 12 12 11 11 11 10
15 16 19 19 20 19 19 17 16 16 17 16 15 15 14 13 13 12 11 10 10 10 10 10 10 10 10 11 11 11 11 12 12 12 12 12 12 11 11 10 10 10 9 9
16 16 17 19 19 19 18 18 15 15 16 16 16 15 14 14 13 12 11 10 9 9 9 9 9 9 10 10 10 10 11 11 11 11 11 10 10 10 10 9 9 8 8 8
15 15 16 17 17 17 17 17 15 14 14 15 15 14 15 14 13 11 10 9 9 9 9 9 8 8 9 9 9 9 9 9 9 9 9 9 9 8 8 8 8 7 7 7
15 13 14 16 17 18 17 16 15 15 15 14 14 14 13 13 12 11 10 9 9 8 8 8 8 8 8 8 8 8 8 8 8 8 8 8 7 7 7 7 6 6 6 6
15 13 14 15 16 16 16 16 15 14 13 14 14 13 12 12 11 10 9 9 8 8 8 8 8 8 8 7 7 7 7 7 7 7 7 7 7 6 6 6 6 5 5 5
15 13 14 15 15 14 15 16 16 14 13 14 14 13 12 11 10 9 9 8 8 8 8 8 7 7 7 7 7 7 7 7 7 7 6 6 6 6 5 5 5 5 5 5
14 14 14 14 15 15 16 16 16 15 14 14 14 13 12 11 10 9 8 8 8 7 7 7 7 7 7 7 7 6 6 6 6 6 6 6 5 5 5 5 5 5 5 5
13 14 14 15 16 16 16 16 16 15 15 14 13 13 12 10 9 9 8 8 7 7 7 7 7 7 7 7 7 6 6 6 6 6 5 5 5 5 5 5 5 5 5 4
13 13 13 14 15 15 14 15 15 14 14 14 13 12 11 10 9 9 8 8 7 7 7 7 7 7 7 7 6 6 6 6 6 6 5 5 5 5 5 5 5 5 4 4
14 13 12 13 14 14 14 15 15 13 13 12 12 11 10 10 9 8 8 8 7 7 7 7 7 7 7 7 6 6 6 6 6 6 5 5 5 5 5 5 5 4 4 4
14 14 13 13 14 14 15 15 14 13 12 11 11 10 9 9 8 8 8 8 8 7 7 7 7 7 7 6 6 6 6 6 6 5 5 5 5 5 5 5 5 4 4 4
15 14 13 13 14 14 15 15 15 13 11 11 10 10 9 9 9 8 8 8 7 7 7 7 7 7 7 6 6 6 6 6 6 6 5 5 5 5 5 5 5 4 4 4
16 15 14 13 13 14 15 16 15 13 12 11 10 10 9 9 9 8 7 7 7 7 7 7 7 6 6 6 6 6 6 6 6 6 5 5 5 5 5 5 5 5 4 4
15 14 13 13 12 13 14 15 13 12 12 11 10 10 10 9 8 8 7 7 7 7 7 7 7 6 6 6 6 6 6 6 6 5 5 5 5 5 5 5 5 5 4 4
14 13 12 11 12 12 14 13 14 13 12 11 10 10 9 8 7 7 7 7 7 7 7 7 6 6 6 6 6 6 6 6 6 5 5 5 5 5 5 5 5 5 4 4
15 13 12 11 12 12 13 13 13 13 12 12 11 10 9 8 7 7 7 7 7 7 7 6 6 6 6 6 6 6 6 6 5 5 5 5 5 5 5 5 5 5 4 4
15 13 12 11 11 12 12 13 12 12 11 11 10 9 9 8 8 7 7 7 7 7 7 6 6 6 6 6 6 6 6 6 5 5 5 5 5 5 5 5 5 4 4 4
14 13 12 11 12 11 11 12 12 11 10 10 9 8 8 8 8 7 7 7 7 7 6 6 6 6 6 6 6 6 5 6 5 5 5 5 5 5 5 5 5 4 4 4
Wind_Speed
4 1 6 11 11 10 9 11 14 16 12 6 8 7 5 4 8 8 8 9 9 8 8 8 8 9 9 8 7 5 5 8 8 7 7 6 5 5 5 6 8 8 8 7
5 7 15 13 11 10 11 13 13 12 9 4 2 5 10 13 12 12 12 12 11 10 11 12 11 11 10 9 7 4 4 4 6 6 5 6 6 6 6 6 10 11 10 10
9 11 11 9 10 10 9 8 7 7 9 5 4 7 10 11 14 15 15 14 13 13 13 13 13 12 10 9 8 7 6 4 4 6 7 8 7 6 5 7 7 11 13 14
7 9 8 8 8 6 8 8 6 5 4 5 3 3 3 7 12 13 13 14 13 13 13 13 14 13 12 11 11 10 9 8 6 6 8 9 8 7 6 7 8 10 14 15
7 6 7 8 8 6 8 8 6 5 4 4 2 5 2 4 8 10 11 13 12 12 13 14 14 13 12 11 11 11 11 10 9 10 9 10 10 10 8 8 11 11 11 13
7 6 4 6 8 6 5 5 7 4 3 2 4 4 3 2 7 9 9 11 12 12 13 14 13 13 12 12 13 12 12 11 11 12 12 12 13 12 11 10 10 9 8 9
8 8 5 3 5 7 3 4 4 5 4 4 2 5 2 4 10 11 11 11 12 12 12 14 14 13 12 13 13 13 13 13 13 14 13 12 12 13 12 11 10 9 8 8
4 8 5 2 2 3 2 6 6 3 2 4 5 6 5 8 12 12 11 12 12 12 13 14 13 12 12 14 14 13 13 14 13 14 14 13 12 11 11 12 10 10 9 8
5 6 6 5 4 3 1 2 7 6 1 0 2 5 5 8 12 12 12 12 11 12 13 13 13 13 12 14 14 13 13 14 14 15 15 15 14 14 13 12 11 9 8 8
5 5 6 5 2 0 4 3 5 4 3 1 1 3 5 10 12 12 11 12 11 11 12 13 13 13 13 13 13 13 14 14 14 13 13 13 13 13 13 12 12 10 9 9
4 3 6 4 1 2 3 3 4 3 3 4 1 2 2 11 12 13 13 11 11 12 12 12 12 12 12 13 12 13 13 13 13 13 13 13 13 12 12 11 10 9 8 8
3 3 3 5 4 1 3 2 4 3 1 3 4 1 4 11 12 13 14 12 11 12 12 12 12 12 12 12 12 12 12 12 12 11 12 12 11 11 11 10 8 7 8 7
5 4 3 6 6 7 3 1 2 5 4 3 4 3 5 12 13 12 14 14 12 13 13 12 11 11 11 11 11 11 11 11 10 11 11 11 10 9 9 8 7 7 7 7
5 4 4 4 2 1 3 4 1 5 4 4 5 8 9 12 13 12 13 13 12 12 12 12 11 10 10 10 10 10 10 9 9 10 10 9 8 7 7 7 6 6 6 7
5 3 1 1 1 2 2 3 3 4 4 6 9 10 12 13 13 13 13 14 14 13 13 12 11 10 9 9 9 9 8 8 8 8 8 7 7 7 7 6 6 5 5 6
4 4 2 3 3 5 6 4 6 7 6 10 12 6 9 12 11 13 13 13 13 13 13 13 12 11 10 9 9 8 8 7 7 7 7 6 6 6 6 5 5 6 6 6
3 5 4 1 1 4 4 1 4 5 5 7 6 7 15 14 14 14 14 13 13 13 13 12 10 9 8 7 8 8 7 7 7 6 6 6 6 6 5 6 6 6 5 5
6 5 4 2 3 3 1 3 11 10 7 5 9 12 12 12 10 9 10 13 13 12 12 11 9 8 7 6 7 7 7 7 6 6 6 6 6 6 5 5 5 4 3 4
6 7 4 3 4 4 3 4 6 7 4 4 12 14 13 15 11 7 7 9 11 10 10 9 8 7 7 7 7 7 7 6 7 6 6 6 6 6 5 5 3 2 2 2
4 5 5 4 4 3 2 5 10 11 4 5 12 15 15 11 7 6 9 11 11 10 9 8 7 7 7 6 6 7 7 7 6 6 6 6 6 6 5 3 2 1 2 2
3 4 3 4 3 1 1 6 5 2 7 10 11 14 11 4 5 11 13 11 11 10 9 8 8 6 5 6 7 8 7 6 6 6 6 5 5 5 3 2 1 2 2 3
4 3 2 3 4 3 3 3 4 5 7 12 10 10 10 12 15 14 13 12 12 10 9 8 7 6 5 7 8 8 6 5 6 6 6 5 4 3 3 3 4 4 4 4
4 5 5 4 3 3 2 6 6 9 12 9 9 12 16 16 15 14 12 11 10 9 8 7 7 7 6 6 8 7 5 5 6 6 5 4 4 3 4 4 5 4 5 4
3 5 6 6 4 6 9 9 9 11 12 12 15 16 16 15 14 12 11 10 9 7 7 7 8 8 6 5 6 6 6 6 6 5 4 3 4 3 4 4 4 4 4 4
7 5 6 6 7 9 7 10 13 15 16 17 15 14 14 15 14 11 10 9 8 7 6 7 8 8 6 5 5 5 5 6 5 4 3 3 3 4 4 3 3 4 2 3
4 8 9 8 10 8 8 10 16 17 15 17 17 13 12 12 12 11 10 8 8 7 7 7 7 7 6 6 5 4 5 5 5 3 2 2 3 3 4 4 3 4 2 3
Wind_Direction
286 97 248 244 229 224 248 266 273 278 284 283 243 239 271 36 69 74 74 87 91 92 81 83 89 92 93 93 97 111 139 149 153 154 142 127 121 105 89 79 75 81 83 89
337 268 247 244 246 243 251 260 272 286 305 318 106 79 62 62 71 78 80 77 80 76 68 68 70 78 77 78 76 88 70 154 159 153 140 123 117 102 93 80 70 67 71 73
230 253 266 260 255 257 266 249 254 279 316 334 87 62 73 70 75 73 71 72 70 71 69 64 60 59 62 63 59 56 40 42 101 121 118 113 104 98 87 74 66 55 61 65
249 263 285 285 277 260 274 262 261 282 317 300 69 117 87 92 78 72 72 71 68 65 65 64 62 56 51 51 54 53 48 43 59 88 109 118 117 110 97 96 86 69 61 63
267 289 303 289 268 268 257 270 278 268 258 296 350 118 171 123 98 87 80 77 72 66 68 66 62 60 53 52 57 53 53 44 55 70 83 93 98 101 102 95 86 75 64 63
265 273 254 256 278 266 273 321 337 13 77 286 263 141 186 182 135 115 96 87 79 72 68 67 61 58 53 52 57 58 59 48 59 72 77 92 105 109 104 94 87 77 68 61
310 306 292 268 323 326 16 68 14 353 9 266 314 99 71 78 111 116 107 92 81 73 67 63 61 57 54 55 57 59 64 57 57 69 74 82 95 99 99 95 89 85 77 69
284 296 291 290 197 257 281 143 160 197 241 295 16 81 82 87 97 99 97 90 81 76 72 69 65 62 59 59 58 62 66 64 61 67 70 73 80 86 86 85 87 84 82 76
215 264 283 289 260 193 263 219 178 151 200 46 76 115 118 114 111 109 103 93 85 81 79 77 73 69 66 66 63 64 70 71 69 72 75 74 78 84 87 86 84 83 81 81
183 258 290 301 345 72 168 174 75 105 153 228 259 155 174 163 145 127 115 108 101 92 86 82 78 76 73 72 72 71 72 74 74 75 79 83 81 82 85 86 85 83 78 76
151 199 308 350 31 314 24 62 90 111 146 155 194 277 314 162 151 135 123 116 111 104 97 90 85 82 81 79 77 76 76 78 78 79 81 82 81 81 82 83 81 80 76 73
163 131 287 279 263 257 126 137 128 131 251 142 140 8 39 126 128 128 124 118 112 109 103 97 93 90 86 83 82 82 82 82 82 83 84 83 83 83 83 82 80 78 77 73
138 106 19 351 359 17 47 52 134 139 127 146 142 139 101 118 122 124 124 121 117 113 109 105 101 98 95 93 91 90 88 89 87 87 87 84 82 82 82 82 79 76 76 73
117 105 152 187 224 328 355 360 59 123 138 152 156 146 147 138 132 127 124 122 119 117 115 113 108 104 103 102 100 98 94 93 93 90 88 85 83 83 84 83 78 76 78 82
99 105 151 221 156 115 94 30 49 99 143 150 150 151 160 152 144 136 132 128 126 124 120 118 114 111 108 106 104 105 103 100 99 95 92 91 89 86 84 80 76 73 77 90
100 125 92 48 85 91 88 76 72 74 88 113 121 115 130 129 130 135 137 136 133 130 126 123 119 117 116 116 114 111 109 108 106 104 104 102 95 91 88 85 80 76 76 83
121 123 103 48 65 74 46 29 90 82 86 124 139 144 138 141 148 148 145 140 137 135 130 126 123 121 120 118 118 117 117 113 110 109 109 106 102 97 96 95 86 83 82 88
130 114 114 116 63 70 288 87 106 91 58 86 114 132 139 135 124 119 132 136 136 133 130 127 127 124 118 114 114 111 111 112 112 108 106 106 105 103 99 94 93 91 93 101
139 133 121 115 104 116 155 161 143 111 71 100 124 126 120 116 103 100 118 126 130 130 129 127 125 122 119 120 120 114 112 113 115 116 115 114 115 111 103 99 99 96 97 105
95 101 113 124 124 161 225 156 133 105 118 158 139 139 141 135 136 150 139 127 124 122 122 122 118 115 117 122 118 113 115 114 119 124 124 123 119 118 117 121 120 106 114 129
61 48 83 111 110 117 312 153 144 130 192 165 153 150 150 143 142 137 132 126 125 124 122 121 119 120 127 125 117 117 117 125 133 125 118 117 122 131 132 110 70 74 87 90
131 115 95 108 117 216 305 125 162 181 135 141 143 144 128 116 119 125 128 130 131 127 126 125 121 119 119 122 121 119 128 136 125 119 114 116 127 134 110 80 56 59 80 88
94 150 137 127 172 233 52 108 119 121 124 126 133 133 130 127 129 129 131 134 133 133 133 127 124 117 111 115 120 126 140 129 116 112 116 120 112 95 93 94 86 70 68 82
99 101 96 90 103 101 95 96 97 111 117 123 131 132 133 132 134 133 135 135 134 134 135 130 125 122 121 122 125 135 136 124 117 121 133 129 112 94 82 88 96 96 87 85
157 112 96 103 128 103 94 111 115 111 114 119 123 127 132 134 136 136 137 138 138 135 132 131 134 136 139 133 129 135 135 127 126 136 146 149 137 131 115 98 94 111 125 153
169 145 145 177 180 146 145 135 128 124 127 130 129 126 129 132 133 133 135 137 137 136 133 134 138 141 145 143 144 155 156 143 140 141 159 160 151 145 142 129 79 56 118 118
Height
1491 1497 1501 1496 1494 1495 1494 1495 1493 1482 1471 1474 1473 1473 1471 1471 1472 1474 1474 1476 1477 1480 1481 1482 1485 1490 1493 1497 1502 1506 1509 1512 1515 1519 1522 1527 1530 1533 1535 1537 1538 1540 1542 1544
1497 1498 1488 1485 1485 1487 1489 1492 1488 1478 1468 1470 1474 1477 1478 1477 1479 1478 1477 1478 1479 1481 1482 1483 1485 1489 1491 1495 1499 1502 1506 1509 1512 1516 1520 1524 1528 1531 1533 1534 1536 1538 1540 1541
1497 1488 1480 1480 1481 1483 1483 1486 1483 1479 1471 1468 1474 1487 1486 1486 1485 1484 1483 1483 1483 1483 1484 1485 1488 1490 1494 1496 1498 1499 1505 1507 1510 1515 1518 1521 1524 1527 1530 1532 1534 1535 1537 1538
1488 1481 1479 1478 1478 1477 1483 1473 1473 1473 1480 1484 1479 1499 1493 1490 1489 1489 1490 1489 1489 1490 1489 1488 1490 1491 1494 1494 1497 1499 1502 1505 1508 1512 1515 1517 1521 1525 1528 1530 1531 1532 1534 1536
1485 1479 1479 1479 1474 1471 1473 1467 1469 1471 1477 1483 1481 1496 1499 1492 1494 1495 1495 1494 1494 1494 1493 1493 1494 1495 1496 1496 1498 1500 1504 1507 1507 1510 1513 1516 1520 1523 1526 1528 1529 1530 1532 1534
1478 1473 1473 1472 1467 1466 1466 1468 1471 1475 1484 1495 1484 1492 1499 1494 1493 1497 1498 1498 1498 1498 1497 1496 1497 1498 1499 1499 1500 1503 1505 1507 1506 1509 1513 1516 1519 1522 1524 1526 1528 1529 1531 1533
1481 1474 1469 1467 1469 1466 1468 1483 1498 1498 1504 1500 1482 1490 1500 1493 1494 1498 1500 1501 1501 1501 1500 1500 1500 1502 1502 1502 1503 1504 1506 1508 1508 1511 1513 1516 1519 1522 1523 1525 1528 1529 1531 1532
1491 1487 1471 1467 1470 1472 1472 1481 1500 1506 1506 1500 1488 1497 1501 1499 1499 1502 1504 1504 1504 1504 1504 1505 1506 1507 1506 1506 1507 1508 1510 1511 1512 1513 1515 1518 1520 1522 1524 1526 1529 1530 1531 1533
1488 1485 1468 1464 1463 1466 1471 1477 1480 1492 1493 1501 1501 1500 1502 1502 1502 1504 1505 1507 1508 1509 1509 1509 1511 1511 1511 1509 1511 1512 1514 1514 1515 1516 1518 1520 1522 1523 1525 1527 1530 1531 1533 1534
1479 1484 1471 1464 1462 1463 1467 1471 1484 1494 1503 1507 1503 1501 1502 1501 1503 1505 1507 1509 1512 1512 1513 1513 1514 1514 1514 1514 1515 1517 1517 1518 1519 1520 1522 1523 1524 1526 1528 1530 1532 1534 1536 1537
1476 1484 1477 1469 1470 1471 1470 1475 1482 1492 1495 1504 1510 1509 1494 1495 1500 1504 1508 1511 1513 1514 1515 1516 1517 1518 1518 1518 1520 1520 1521 1522 1523 1525 1526 1527 1528 1530 1532 1534 1536 1538 1539 1540
1475 1483 1485 1476 1467 1465 1469 1475 1481 1493 1496 1497 1505 1509 1495 1495 1501 1505 1508 1512 1515 1516 1517 1519 1520 1521 1522 1523 1524 1525 1527 1527 1528 1529 1530 1531 1533 1535 1537 1539 1541 1542 1543 1544
1473 1483 1489 1484 1480 1474 1474 1474 1476 1484 1493 1498 1502 1507 1500 1501 1505 1508 1510 1513 1517 1519 1520 1522 1524 1525 1527 1528 1529 1530 1532 1533 1534 1534 1535 1537 1539 1540 1542 1544 1545 1546 1547 1547
1468 1481 1488 1491 1487 1483 1481 1475 1474 1481 1492 1494 1494 1499 1502 1504 1506 1510 1513 1516 1519 1521 1523 1525 1527 1529 1531 1533 1534 1535 1537 1538 1539 1540 1541 1542 1544 1545 1547 1548 1549 1550 1550 1550
1469 1481 1481 1481 1478 1478 1479 1477 1475 1477 1481 1487 1490 1494 1499 1503 1507 1511 1515 1518 1521 1524 1526 1528 1530 1532 1535 1537 1538 1540 1541 1543 1544 1545 1546 1547 1549 1550 1551 1552 1553 1553 1553 1553
1471 1479 1480 1481 1477 1477 1479 1477 1475 1477 1479 1484 1489 1496 1498 1504 1509 1513 1516 1519 1523 1525 1528 1531 1533 1535 1538 1540 1542 1544 1546 1548 1549 1550 1551 1552 1553 1554 1555 1555 1556 1556 1556 1556
1472 1477 1484 1487 1480 1481 1490 1483 1481 1483 1483 1486 1493 1497 1501 1506 1510 1513 1517 1520 1524 1527 1529 1532 1535 1538 1541 1543 1545 1547 1549 1551 1553 1554 1555 1556 1556 1557 1558 1558 1558 1558 1558 1558
1470 1477 1485 1489 1488 1497 1493 1480 1480 1486 1489 1489 1491 1497 1502 1507 1511 1515 1518 1521 1525 1528 1531 1534 1538 1541 1543 1546 1548 1550 1552 1554 1555 1557 1558 1558 1559 1560 1560 1560 1560 1560 1560 1560
1462 1472 1483 1491 1493 1494 1489 1484 1484 1488 1497 1495 1496 1501 1506 1510 1514 1520 1522 1524 1526 1529 1533 1536 1540 1542 1545 1548 1551 1552 1554 1556 1558 1559 1560 1561 1561 1562 1562 1562 1562 1562 1562 1561
1463 1468 1479 1487 1492 1496 1489 1481 1481 1487 1500 1499 1499 1502 1507 1510 1516 1521 1523 1526 1529 1532 1535 1538 1542 1545 1548 1550 1552 1554 1556 1558 1560 1561 1562 1563 1563 1564 1564 1564 1563 1563 1563 1562
1471 1474 1480 1486 1492 1491 1482 1480 1482 1493 1496 1497 1499 1503 1507 1509 1513 1518 1523 1527 1531 1534 1538 1541 1544 1547 1550 1552 1554 1556 1558 1560 1562 1563 1564 1564 1565 1565 1565 1565 1565 1564 1563 1563
1474 1479 1483 1487 1495 1495 1481 1481 1485 1488 1486 1493 1499 1503 1507 1510 1514 1519 1524 1529 1533 1536 1540 1543 1546 1549 1552 1554 1556 1558 1560 1562 1563 1564 1565 1566 1566 1566 1566 1566 1565 1565 1564 1564
1471 1474 1481 1486 1491 1485 1481 1481 1483 1484 1489 1495 1500 1504 1508 1512 1517 1522 1526 1531 1535 1538 1542 1545 1548 1551 1553 1556 1558 1559 1561 1563 1564 1565 1566 1567 1567 1567 1567 1567 1566 1565 1564 1563
1471 1471 1478 1485 1487 1485 1485 1486 1488 1490 1493 1497 1501 1506 1510 1514 1519 1524 1529 1533 1537 1541 1544 1546 1549 1552 1554 1557 1559 1561 1562 1564 1565 1566 1567 1567 1568 1568 1568 1567 1566 1565 1564 1563
1468 1472 1479 1486 1488 1488 1490 1490 1492 1494 1498 1501 1506 1509 1513 1517 1522 1526 1531 1535 1539 1542 1545 1548 1551 1553 1556 1558 1560 1562 1563 1564 1565 1566 1567 1567 1568 1568 1568 1567 1566 1565 1564 1564
1463 1469 1477 1483 1482 1485 1490 1492 1494 1497 1501 1504 1508 1513 1518 1521 1524 1529 1533 1537 1540 1544 1546 1549 1552 1554 1557 1559 1560 1562 1564 1565 1565 1566 1567 1567 1567 1567 1567 1567 1567 1566 1565 1564